Find SCH-619

NORAD ID: 67271 Int'l Des: NNA 2025-313 Owner: STTS Country: RU operational
LEOCIRCULARRETROGRADESSO

当前视图

正在加载3D地球...

关于 SCH-619

正在加载描述...

即将过境

Passes for default location (London). Set your location on the main map for personalized predictions.

高度历史

Loading altitude history...

两行轨道根数

1 67271U 25313Z 26149.21690734 .00006084 00000-0 27309-3 0 9993
2 67271 97.3948 223.9924 0016448 71.3142 288.9877 15.21423350 23052
Epoch: May 29, 2026 • Age: 25 hours

当前状态

高度 526.0 km
速度 7.60 km/s
星下点 -49.57°S, 107.68°W
发射日期 Dec 28, 2025
运行时间 0.4 years
类型 other

技术详情

分类 Payload
质量 3.00 kg
干质量 3.00 kg
总质量 3.00 kg
长度 0.30 m
直径 0.10 m
跨度 0.30 m
形状 Box
制造商 STTS
平台类型 Cubesat 3U
阶段状态 In Orbit
所有者/国家 STTS/RU

Most Searched